IRIDIUM 106 1 41917U 17003A 25348.90660012 .00000047 00000+0 97357-5 0 9995 2 41917 86.3985 165.5492 0002341 99.0444 261.1017 14.34217921466799 IRIDIUM 103 1 41918U 17003B 25348.89390981 .00000168 00000+0 52953-4 0 9995 2 41918 86.3985 165.4548 0001626 97.3550 262.7831 14.34214223466811 IRIDIUM 109 1 41919U 17003C 25348.90026577 .00000121 00000+0 36229-4 0 9992 2 41919 86.3987 165.5087 0001879 92.6726 267.4684 14.34220356466784 IRIDIUM 102 1 41920U 17003D 25348.86854158 .00000071 00000+0 18174-4 0 9996 2 41920 86.3986 165.4497 0002004 87.9953 272.1472 14.34217699466862 IRIDIUM 105 1 41921U 17003E 25348.90904845 .00000375 00000+0 12682-3 0 9995 2 41921 86.3978 133.9252 0001894 95.0371 265.1041 14.34219030468725 IRIDIUM 104 1 41922U 17003F 25348.88122743 .00000075 00000+0 19808-4 0 9997 2 41922 86.3986 165.4840 0001653 86.7972 273.3413 14.34218173466858 IRIDIUM 114 1 41923U 17003G 25348.88756081 .00000066 00000+0 16618-4 0 9992 2 41923 86.3986 165.4652 0001786 90.4780 269.6621 14.34216919466839 IRIDIUM 108 1 41924U 17003H 25348.91586253 .00000275 00000+0 91107-4 0 9997 2 41924 86.3970 133.8123 0002105 90.1091 270.0346 14.34216672468695 IRIDIUM 112 1 41925U 17003J 25348.87488472 .00000007 00000+0 -46912-5 0 9996 2 41925 86.3988 165.3213 0001747 86.6762 273.4634 14.34217337466853 IRIDIUM 111 1 41926U 17003K 25348.93197005 .00000058 00000+0 13561-4 0 9991 2 41926 86.3984 165.3638 0001948 93.8906 266.2512 14.34217877466847 IRIDIUM 113 1 42803U 17039A 25348.70262975 .00000015 00000+0 -17284-5 0 9990 2 42803 86.3974 39.2752 0002028 94.2445 265.8982 14.34217556444745 IRIDIUM 123 1 42804U 17039B 25348.67433960 .00000219 00000+0 71224-4 0 9999 2 42804 86.3966 70.7708 0002061 105.1509 254.9915 14.34216178443505 IRIDIUM 120 1 42805U 17039C 25348.69628843 .00000247 00000+0 81067-4 0 9995 2 42805 86.3964 39.0841 0002490 96.8408 263.3071 14.34216902444738 IRIDIUM 115 1 42806U 17039D 25348.90653437 .00000331 00000+0 92455-4 0 9994 2 42806 86.4499 39.0996 0002491 105.8637 254.2838 14.43275466447687 IRIDIUM 118 1 42807U 17039E 25348.77581615 .00000006 00000+0 -48288-5 0 9994 2 42807 86.3963 70.7273 0001836 96.2111 263.9294 14.34215258443519 IRIDIUM 117 1 42808U 17039F 25348.72508085 .00000258 00000+0 85215-4 0 9998 2 42808 86.3967 70.7079 0002018 102.0484 258.0938 14.34216792443536 IRIDIUM 126 1 42809U 17039G 25348.68068242 .00000241 00000+0 78961-4 0 9992 2 42809 86.3967 70.7746 0001893 99.3443 260.7967 14.34217239443507 IRIDIUM 124 1 42810U 17039H 25348.77102224 .00000385 00000+0 10860-3 0 9995 2 42810 86.4493 7.4582 0002311 97.3183 262.8281 14.43278594448513 IRIDIUM 128 1 42811U 17039J 25348.81095818 .00000282 00000+0 93770-4 0 9999 2 42811 86.3967 102.2539 0002432 97.2609 262.8863 14.34217637443557 IRIDIUM 121 1 42812U 17039K 25348.76947952 -.00000081 00000+0 -35972-4 0 9998 2 42812 86.3964 70.7637 0002122 95.1792 264.9646 14.34217168443392 IRIDIUM 133 1 42955U 17061A 25348.84268159 .00000334 00000+0 11216-3 0 9998 2 42955 86.3968 102.3541 0002099 97.7762 262.3673 14.34218127428355 IRIDIUM 100 1 42956U 17061B 25348.83632469 -.00000008 00000+0 -10049-4 0 9991 2 42956 86.3966 102.2796 0001947 99.3136 260.8280 14.34215959428356 IRIDIUM 122 1 42957U 17061C 25348.87438091 .00000248 00000+0 81636-4 0 9995 2 42957 86.3969 102.2635 0001956 98.5451 261.5967 14.34218818428361 IRIDIUM 129 1 42958U 17061D 25348.89975352 .00000140 00000+0 42859-4 0 9999 2 42958 86.3966 102.3179 0001780 87.5840 272.5560 14.34217089428380 IRIDIUM 119 1 42959U 17061E 25348.86804046 .00000202 00000+0 65095-4 0 9994 2 42959 86.3968 102.3260 0001778 95.0837 265.0562 14.34215713428393 IRIDIUM 107 1 42960U 17061F 25348.81729998 .00000187 00000+0 59729-4 0 9992 2 42960 86.3969 102.3673 0002029 108.2436 251.8981 14.34216959428397 IRIDIUM 132 1 42961U 17061G 25348.82363902 .00000396 00000+0 13452-3 0 9997 2 42961 86.3966 102.3456 0002005 99.6869 260.4554 14.34215497428399 IRIDIUM 136 1 42962U 17061H 25348.85535515 .00000257 00000+0 84842-4 0 9990 2 42962 86.3968 102.3381 0001873 97.7729 262.3680 14.34216632428411 IRIDIUM 139 1 42963U 17061J 25348.93146673 .00000334 00000+0 11212-3 0 9999 2 42963 86.3970 102.3652 0002069 99.6406 260.5024 14.34216282428432 IRIDIUM 125 1 42964U 17061K 25348.84898665 .00000120 00000+0 35664-4 0 9996 2 42964 86.3971 102.4573 0001626 109.4404 250.6968 14.34213710428433 IRIDIUM 135 1 43070U 17083A 25348.89290025 .00000255 00000+0 83837-4 0 9994 2 43070 86.3967 39.0441 0002144 92.9004 267.2438 14.34214187417730 IRIDIUM 138 1 43071U 17083B 25348.63920301 -.00000004 00000+0 -83317-5 0 9992 2 43071 86.3977 38.8169 0001681 93.0139 267.1249 14.34217499417684 IRIDIUM 116 1 43072U 17083C 25348.67725873 .00000152 00000+0 47275-4 0 9998 2 43072 86.3968 39.1226 0002511 96.8387 263.3094 14.34216810417729 IRIDIUM 130 1 43073U 17083D 25348.64555081 .00000313 00000+0 10466-3 0 9998 2 43073 86.3976 39.3932 0002444 101.1773 258.9698 14.34218672417660 IRIDIUM 151 1 43074U 17083E 25348.89925048 -.00000012 00000+0 -11476-4 0 9991 2 43074 86.3962 39.0832 0002153 95.2574 264.8868 14.34217355417720 IRIDIUM 134 1 43075U 17083F 25348.72799648 .00000276 00000+0 91341-4 0 9998 2 43075 86.3970 39.1603 0002224 99.7415 260.4032 14.34213605417661 IRIDIUM 137 1 43076U 17083G 25348.67091789 .00000133 00000+0 40372-4 0 9994 2 43076 86.3972 39.2732 0002663 89.6195 270.5306 14.34217643417727 IRIDIUM 141 1 43077U 17083H 25348.59480546 .00000007 00000+0 -44025-5 0 9990 2 43077 86.3968 39.1464 0002020 96.8242 263.3184 14.34216939417714 IRIDIUM 153 1 43078U 17083J 25348.75628925 -.00000112 00000+0 -46897-4 0 9990 2 43078 86.3967 7.5693 0001715 96.7035 263.4356 14.34217608418847 IRIDIUM 131 1 43079U 17083K 25348.65188889 .00000008 00000+0 -41687-5 0 9996 2 43079 86.3967 39.2959 0002012 93.8370 266.3056 14.34217623417650 IRIDIUM 144 1 43249U 18030A 25348.76263269 .00000027 00000+0 24322-5 0 9993 2 43249 86.3966 7.4999 0002363 95.3404 264.8062 14.34217713403704 IRIDIUM 149 1 43250U 18030B 25348.76897533 .00000192 00000+0 61612-4 0 9997 2 43250 86.3969 7.4664 0002209 93.5028 266.6420 14.34217508403721 IRIDIUM 157 1 43251U 18030C 25348.78800273 .00000299 00000+0 99617-4 0 9999 2 43251 86.3971 7.5075 0002210 88.1950 271.9499 14.34215530403704 IRIDIUM 140 1 43252U 18030D 25348.80703055 .00000067 00000+0 16858-4 0 9992 2 43252 86.3969 7.5125 0002264 95.2437 264.9018 14.34217238403768 IRIDIUM 145 1 43253U 18030E 25348.79434014 .00000304 00000+0 10154-3 0 9993 2 43253 86.3967 7.4900 0002498 96.2738 263.8742 14.34214934403695 IRIDIUM 146 1 43254U 18030F 25348.77531236 .00000289 00000+0 96169-4 0 9999 2 43254 86.3970 7.5113 0002344 94.5738 265.5725 14.34220633403703 IRIDIUM 148 1 43255U 18030G 25348.60406698 .00000104 00000+0 30183-4 0 9995 2 43255 86.3972 7.6232 0002269 89.4293 270.7162 14.34216823403714 IRIDIUM 142 1 43256U 18030H 25348.78166126 .00000239 00000+0 78361-4 0 9993 2 43256 86.3965 7.4445 0002565 95.8258 264.3231 14.34217569403705 IRIDIUM 150 1 43257U 18030J 25348.81971045 .00000290 00000+0 96504-4 0 9998 2 43257 86.3971 7.5390 0002392 95.1165 265.0304 14.34220387403735 IRIDIUM 143 1 43258U 18030K 25348.80068531 .00000295 00000+0 98406-4 0 9993 2 43258 86.3971 7.6322 0002471 95.1306 265.0172 14.34214954403665 IRIDIUM 161 1 43478U 18047C 25348.88762383 .00000150 00000+0 38729-4 0 9991 2 43478 86.4506 165.4833 0001872 85.7562 274.3853 14.43279861398555 IRIDIUM 152 1 43479U 18047D 25348.91294121 -.00000035 00000+0 -19633-4 0 9993 2 43479 86.3986 165.3334 0001714 90.4516 269.6876 14.34217522396072 IRIDIUM 147 1 43480U 18047E 25348.91928339 .00000035 00000+0 54518-5 0 9990 2 43480 86.3984 165.3327 0002012 86.6883 273.4543 14.34217430396072 IRIDIUM 110 1 43481U 18047F 25348.92562261 .00000099 00000+0 28228-4 0 9998 2 43481 86.3986 165.4168 0001598 79.2876 280.8499 14.34218093396064 IRIDIUM 162 1 43482U 18047G 25348.88132061 .00000175 00000+0 46138-4 0 9990 2 43482 86.4505 165.3793 0001807 97.5933 262.5473 14.43278139398547 IRIDIUM 160 1 43569U 18061A 25348.87146323 .00000276 00000+0 91458-4 0 9994 2 43569 86.3978 133.8617 0001922 86.3200 273.8215 14.34215650386952 IRIDIUM 166 1 43570U 18061B 25348.89683441 .00000284 00000+0 94348-4 0 9995 2 43570 86.3974 133.8032 0002151 90.6855 269.4587 14.34216242386984 IRIDIUM 158 1 43571U 18061C 25348.93488532 .00000276 00000+0 91386-4 0 9995 2 43571 86.3977 133.7978 0001820 98.5213 261.6189 14.34214796386954 IRIDIUM 165 1 43572U 18061D 25348.89049099 .00000180 00000+0 57155-4 0 9992 2 43572 86.3973 133.8588 0002067 90.7217 269.4216 14.34216759386971 IRIDIUM 155 1 43573U 18061E 25348.92220481 .00000059 00000+0 14104-4 0 9995 2 43573 86.3971 133.7238 0002047 99.8635 260.2792 14.34217489386949 IRIDIUM 154 1 43574U 18061F 25348.90317676 .00000489 00000+0 16738-3 0 9998 2 43574 86.3977 133.8565 0002025 92.1023 268.0404 14.34219572386999 IRIDIUM 163 1 43575U 18061G 25348.88414704 .00000327 00000+0 10960-3 0 9998 2 43575 86.3973 133.7856 0001828 93.7164 266.4241 14.34215996386965 IRIDIUM 156 1 43576U 18061H 25348.92854383 .00000225 00000+0 73134-4 0 9995 2 43576 86.3973 133.7742 0002160 99.2775 260.8665 14.34214918386960 IRIDIUM 164 1 43577U 18061J 25348.90951296 .00000215 00000+0 69654-4 0 9996 2 43577 86.3975 133.8193 0002177 90.6947 269.4498 14.34213950387008 IRIDIUM 159 1 43578U 18061K 25348.87780570 .00000310 00000+0 10378-3 0 9992 2 43578 86.3980 133.7732 0002017 90.0657 270.0770 14.34216614386963 IRIDIUM 180 1 43922U 19002A 25348.73776573 .00000059 00000+0 14013-4 0 9995 2 43922 86.3966 70.7062 0001939 94.0366 266.1051 14.34217431362554 IRIDIUM 176 1 43923U 19002B 25348.76261639 .00001279 00000+0 19892-3 0 9995 2 43923 86.6087 70.6660 0002298 95.3531 264.7949 14.72248574372119 IRIDIUM 168 1 43924U 19002C 25348.73141417 .00000351 00000+0 11840-3 0 9999 2 43924 86.3968 70.7808 0002046 97.7091 262.4338 14.34221816362538 IRIDIUM 173 1 43925U 19002D 25348.78850373 .00000309 00000+0 10311-3 0 9998 2 43925 86.3966 70.6535 0001990 101.4832 258.6587 14.34218224362527 IRIDIUM 169 1 43926U 19002E 25348.85990153 .00000419 00000+0 13060-3 0 9994 2 43926 86.4223 102.2749 0002069 126.5092 233.6297 14.38606556363725 IRIDIUM 172 1 43927U 19002F 25348.85192686 .00000229 00000+0 74567-4 0 9999 2 43927 86.3966 70.6343 0001949 93.6299 266.5120 14.34220067362540 IRIDIUM 175 1 43928U 19002G 25348.62194512 .00000866 00000+0 13333-3 0 9995 2 43928 86.1502 13.0240 0003220 90.3767 269.7819 14.72238939372089 IRIDIUM 171 1 43929U 19002H 25348.76313618 .00000247 00000+0 81259-4 0 9997 2 43929 86.3976 70.9574 0002355 99.7380 260.4082 14.34216005362527 IRIDIUM 170 1 43930U 19002J 25348.76878805 .00000088 00000+0 10053-4 0 9990 2 43930 86.6086 70.6669 0002284 91.3717 268.7761 14.72243332372126 IRIDIUM 167 1 43931U 19002K 25348.75679468 .00000219 00000+0 70976-4 0 9990 2 43931 86.3966 70.6948 0002453 105.3794 254.7673 14.34216744362525 IRIDIUM 181 1 56726U 23068S 25348.89826773 .00000462 00000+0 13130-3 0 9999 2 56726 86.4513 133.8242 0002403 84.7958 275.3517 14.43308096135858 IRIDIUM 177 1 56727U 23068T 25348.70259270 .00001288 00000+0 16608-3 0 9992 2 56727 86.1969 56.3980 0002300 86.0197 274.1286 14.80212348139078 IRIDIUM 174 1 56728U 23068U 25348.75641833 .00001465 00000+0 22840-3 0 9990 2 56728 86.6095 70.8013 0002190 87.7929 272.3539 14.72254559138880 IRIDIUM 178 1 56729U 23068V 25348.82688797 .00001583 00000+0 20491-3 0 9990 2 56729 86.6538 102.4271 0002455 96.8137 263.3364 14.80239908139097 IRIDIUM 179 1 56730U 23068W 25348.82152903 .00001389 00000+0 17936-3 0 9991 2 56730 86.6775 110.8582 0002445 89.8247 270.3255 14.80229858139093